TimeCST,TemperatureF,Dew PointF,Humidity,Sea Level PressureIn,VisibilityMPH,Wind Direction,Wind SpeedMPH,Gust SpeedMPH,PrecipitationIn,Events,Conditions,WindDirDegrees,DateUTC
12:53 AM,70.0,68.0,93,30.02,10.0,SSE,8.1,-,N/A,,Overcast,160,2011-11-22 06:53:00
1:42 AM,69.8,69.8,100,30.01,5.0,South,6.9,-,0.00,Rain,Light Rain,170,2011-11-22 07:42:00
1:53 AM,70.0,69.1,97,30.00,5.0,SSW,5.8,-,0.01,Rain,Light Rain,200,2011-11-22 07:53:00
2:23 AM,69.8,69.8,100,30.00,10.0,South,15.0,21.9,0.00,,Mostly Cloudy,170,2011-11-22 08:23:00
2:33 AM,69.8,69.8,100,30.00,10.0,South,11.5,19.6,0.00,,Overcast,180,2011-11-22 08:33:00
2:53 AM,71.1,69.1,93,29.99,10.0,South,13.8,20.7,0.00,,Overcast,180,2011-11-22 08:53:00
3:13 AM,71.6,69.8,94,30.01,10.0,South,9.2,-,N/A,,Overcast,190,2011-11-22 09:13:00
3:28 AM,71.6,69.8,94,30.02,10.0,South,8.1,-,N/A,,Overcast,190,2011-11-22 09:28:00
3:53 AM,70.0,69.1,97,30.00,10.0,South,6.9,-,N/A,,Overcast,190,2011-11-22 09:53:00
4:17 AM,69.8,69.8,100,30.01,10.0,South,4.6,-,N/A,,Overcast,180,2011-11-22 10:17:00
4:24 AM,69.8,69.8,100,30.01,10.0,South,4.6,-,N/A,,Overcast,180,2011-11-22 10:24:00
4:32 AM,69.8,68.0,94,30.00,10.0,South,5.8,-,N/A,,Overcast,180,2011-11-22 10:32:00
4:53 AM,70.0,68.0,93,29.98,10.0,South,5.8,-,N/A,,Overcast,180,2011-11-22 10:53:00
5:43 AM,69.8,68.0,94,30.01,10.0,South,5.8,-,N/A,,Overcast,180,2011-11-22 11:43:00
6:14 AM,69.8,68.0,94,30.01,10.0,South,8.1,-,N/A,,Overcast,180,2011-11-22 12:14:00
6:24 AM,69.8,69.8,100,30.01,10.0,South,8.1,-,N/A,,Overcast,190,2011-11-22 12:24:00
6:32 AM,69.8,69.8,100,30.01,10.0,South,6.9,-,N/A,,Overcast,190,2011-11-22 12:32:00
6:53 AM,70.0,69.1,97,30.00,8.0,South,6.9,-,0.00,Rain,Light Rain,190,2011-11-22 12:53:00
7:53 AM,71.1,69.1,93,30.01,10.0,South,4.6,-,0.00,,Overcast,190,2011-11-22 13:53:00
8:32 AM,71.6,69.8,94,30.03,10.0,SSW,9.2,-,N/A,,Overcast,210,2011-11-22 14:32:00
8:53 AM,73.0,69.1,87,30.02,10.0,SSW,8.1,17.3,N/A,,Overcast,210,2011-11-22 14:53:00
9:29 AM,73.4,69.8,88,30.04,10.0,SSW,12.7,20.7,N/A,,Scattered Clouds,210,2011-11-22 15:29:00
10:40 AM,77.0,66.2,69,30.02,10.0,SSW,11.5,17.3,N/A,,Mostly Cloudy,200,2011-11-22 16:40:00
10:50 AM,77.0,66.2,69,30.01,10.0,South,11.5,19.6,N/A,,Mostly Cloudy,170,2011-11-22 16:50:00
10:53 AM,78.1,68.0,71,30.00,10.0,SSW,13.8,-,N/A,,Mostly Cloudy,210,2011-11-22 16:53:00
11:53 AM,75.9,66.9,74,29.99,10.0,WSW,9.2,-,N/A,,Scattered Clouds,240,2011-11-22 17:53:00
12:12 PM,64.4,62.6,94,30.04,1.8,NW,11.5,29.9,0.05,Rain,Heavy Rain,310,2011-11-22 18:12:00
12:17 PM,64.4,62.6,94,30.03,2.0,NNW,10.4,-,0.06,Rain,Rain,330,2011-11-22 18:17:00
12:33 PM,64.4,62.6,94,30.01,1.2,NW,5.8,-,0.16,Rain,Heavy Rain,320,2011-11-22 18:33:00
12:44 PM,64.4,62.6,94,30.03,1.2,West,4.6,-,0.24,Rain-Thunderstorm,Heavy Rain,270,2011-11-22 18:44:00
12:53 PM,63.0,63.0,100,30.01,1.5,Calm,Calm,-,0.30,Rain-Thunderstorm,Heavy Thunderstorms and Rain,0,2011-11-22 18:53:00
1:18 PM,62.6,62.6,100,29.99,5.0,SE,5.8,-,0.07,Rain,Light Rain,140,2011-11-22 19:18:00
1:36 PM,64.4,62.6,94,29.99,9.0,SSW,3.5,-,0.08,Rain-Thunderstorm,Light Thunderstorms and Rain,210,2011-11-22 19:36:00
1:51 PM,64.4,62.6,94,30.00,4.0,South,6.9,-,0.10,Rain,Rain,180,2011-11-22 19:51:00
1:53 PM,64.0,63.0,96,29.99,4.0,South,6.9,-,0.10,Rain,Rain,180,2011-11-22 19:53:00
2:28 PM,62.6,62.6,100,29.95,4.0,Variable,4.6,-,0.07,Rain,Rain,0,2011-11-22 20:28:00
2:53 PM,63.0,62.1,97,29.98,6.0,South,5.8,-,0.11,Rain,Light Rain,180,2011-11-22 20:53:00
3:53 PM,63.0,62.1,97,29.98,3.0,SE,4.6,-,0.19,Rain,Rain,140,2011-11-22 21:53:00
4:35 PM,62.6,62.6,100,29.98,10.0,SSE,4.6,-,0.07,Rain,Light Rain,150,2011-11-22 22:35:00
4:53 PM,63.0,63.0,100,29.98,10.0,SSE,3.5,-,0.07,,Overcast,160,2011-11-22 22:53:00
5:05 PM,62.6,62.6,100,29.98,7.0,SSE,5.8,-,0.00,Rain,Light Rain,150,2011-11-22 23:05:00
5:27 PM,62.6,62.6,100,29.99,10.0,Calm,Calm,-,0.00,,Overcast,0,2011-11-22 23:27:00
5:53 PM,63.0,63.0,100,29.98,10.0,Calm,Calm,-,0.01,,Overcast,0,2011-11-22 23:53:00
6:01 PM,62.6,62.6,100,29.99,10.0,South,4.6,-,0.00,Rain,Light Rain,180,2011-11-23 00:01:00
6:37 PM,62.6,62.6,100,30.01,5.0,Calm,Calm,-,0.09,Rain,Light Rain,0,2011-11-23 00:37:00
6:44 PM,62.6,62.6,100,30.02,7.0,Variable,3.5,-,0.09,Rain,Light Rain,0,2011-11-23 00:44:00
6:53 PM,63.0,63.0,100,30.01,10.0,Calm,Calm,-,0.10,Rain,Light Rain,0,2011-11-23 00:53:00
7:10 PM,64.4,62.6,94,30.01,10.0,Calm,Calm,-,0.00,,Scattered Clouds,0,2011-11-23 01:10:00
7:53 PM,63.0,63.0,100,30.01,7.0,Calm,Calm,-,0.00,,Mostly Cloudy,0,2011-11-23 01:53:00
8:18 PM,62.6,62.6,100,30.04,9.0,Calm,Calm,-,N/A,,Overcast,0,2011-11-23 02:18:00
8:33 PM,62.6,62.6,100,30.04,7.0,Calm,Calm,-,N/A,,Overcast,0,2011-11-23 02:33:00
8:53 PM,63.0,63.0,100,30.04,4.0,Calm,Calm,-,N/A,,Overcast,0,2011-11-23 02:53:00
9:01 PM,62.6,62.6,100,30.06,4.0,Calm,Calm,-,N/A,,Overcast,0,2011-11-23 03:01:00
9:15 PM,62.6,62.6,100,30.06,2.5,Calm,Calm,-,N/A,,Overcast,0,2011-11-23 03:15:00
9:22 PM,62.6,62.6,100,30.06,6.0,Calm,Calm,-,N/A,,Overcast,0,2011-11-23 03:22:00
9:53 PM,63.0,63.0,100,30.06,10.0,Calm,Calm,-,N/A,,Overcast,0,2011-11-23 03:53:00
10:05 PM,62.6,62.6,100,30.07,10.0,Calm,Calm,-,N/A,,Overcast,0,2011-11-23 04:05:00
10:17 PM,62.6,62.6,100,30.07,10.0,NNW,6.9,-,N/A,,Overcast,330,2011-11-23 04:17:00
10:46 PM,64.4,62.6,94,30.08,10.0,NNW,8.1,-,N/A,,Overcast,330,2011-11-23 04:46:00
10:53 PM,63.0,62.1,97,30.06,10.0,NNW,10.4,-,N/A,,Overcast,330,2011-11-23 04:53:00
11:18 PM,64.4,60.8,88,30.08,10.0,NNW,11.5,-,N/A,,Overcast,330,2011-11-23 05:18:00
11:26 PM,62.6,60.8,94,30.08,10.0,NNW,8.1,-,N/A,,Overcast,340,2011-11-23 05:26:00
11:35 PM,62.6,60.8,94,30.09,10.0,NNW,8.1,-,N/A,,Overcast,330,2011-11-23 05:35:00
11:53 PM,63.0,61.0,93,30.08,10.0,NNW,9.2,-,N/A,,Overcast,340,2011-11-23 05:53:00